Погода в Куртамыше

Россия / Курганская область     54°54′44″N   64°26′00″E
темп.,
°C
ветер,
м/с
пор.,
м/с
влажн.,
%
обл.,
%
осадки,
мм/ч
давл.,
гПа
погр.,
м
28 февраля, вс
вс2823:00−14юв61195100 1.1 1017606
02:00−15юв61195100 0.4 1015440
05:00−15вюв61095100 0.9 1013362
08:00−17в5109695 0.2 1011279
11:00−14в689597 0.3 1010318
14:00−12всв6994100 0.2 1008381
17:00−11всв71094100 0.5 1006428
20:00−13св61094100 0.4 1007347
1 марта, пн
пн123:00−14св61095100 0.6 1008334
02:00−15ссв5995100 0.4 1009321
05:00−18ссв4896100 0.5 1011227
08:00−19с479798 0.1 1013254
11:00−17с359491 0.1 1015256
14:00−14ссз338999 0.0 1016387
17:00−14ссз2393100 0.1 1017263
20:00−17сз229692 0.1 101826
2 марта, вт
вт223:00−17сз129685 0.1 101820
02:00−19зюз229773 0.1 101720
05:00−19з229780 0.1 101620
08:00−18юз229774 0.1 101636
11:00−14ююз249081 0.1 1015312
14:00−12ююз4490100 0.0 1013456
17:00−13ю4794100 0.1 1012348
20:00−18ю479882 0.0 1011122
3 марта, ср
ср323:00−17ю5109885 0.0 1009197
02:00−17ю61095100 0.0 1007252
05:00−16ю61294100 0.1 1007351
08:00−12ююз71292100 0.2 1006526
11:00−10ююз71291100 0.3 1005577
14:00−6ююз71291100 0.1 1004719
17:00−4ююз71293100 0.4 1003750
20:00−3ююз71395100 0.4 1002561
4 марта, чт
чт423:00−3ююз61195100 0.6 1001438
02:00−4ююз4996100 0.1 1000291
05:00−6юз3597100 0.2 100194
08:00−9з2395100 0.0 100132
11:00−6зсз3594100 0.0 1000211
14:00−5зсз359198 0.0 1000332
17:00−5зсз479272 0.0 1002396
20:00−8з479294 0.0 1004108